Wind_Speed
31 31 32 34 36 37 40 41 42 43 45 47 48 47 47 48 51 54 56 56 58 57 56 54 55 58 59 58 61 64 62 60 61 59 56 57 56 58 62 69 71 74 79 82 83
32 32 34 37 38 40 41 43 44 47 49 51 52 50 51 53 58 61 61 62 61 61 61 59 58 60 61 65 67 69 67 68 67 66 65 64 58 59 63 66 72 75 75 77 84
34 35 38 41 42 43 44 46 48 52 52 54 53 54 57 61 62 62 61 61 61 62 61 62 62 63 65 68 68 69 70 73 74 70 68 68 65 61 63 67 70 74 82 79 80
36 41 44 47 47 48 49 50 53 55 55 55 56 60 65 67 60 61 63 60 59 61 64 64 64 65 67 68 68 70 73 75 74 73 71 71 69 68 68 69 75 75 80 87 84
37 43 49 52 50 49 52 53 54 56 55 63 65 67 69 65 62 61 61 62 63 62 60 56 54 56 61 62 65 66 70 74 73 74 74 74 73 74 72 73 78 78 79 86 91
40 45 52 53 52 52 53 56 56 59 62 68 70 70 69 64 65 60 64 65 64 61 56 56 58 59 62 66 67 70 71 74 76 76 76 73 72 73 79 79 78 81 81 84 91
42 49 53 54 56 55 55 57 64 68 68 73 72 73 69 66 68 66 63 66 68 66 63 63 64 66 69 73 77 82 81 84 88 89 83 75 70 77 78 77 78 81 83 85 86
45 51 55 58 57 55 57 63 67 73 71 76 75 77 69 71 71 67 65 70 69 67 65 66 70 74 78 79 83 84 88 94 100 96 86 72 67 80 80 83 83 83 86 89 88
49 55 58 62 58 55 59 69 69 75 78 77 82 77 71 74 70 68 70 77 76 76 73 75 77 83 89 91 94 93 81 77 80 78 72 73 69 82 82 84 86 90 91 94 94
51 55 60 59 60 63 65 73 75 77 80 81 81 74 75 75 71 72 75 80 82 80 77 78 82 87 94 95 82 74 68 70 65 67 64 64 61 72 79 78 80 86 95 96 98
54 60 60 61 64 67 70 74 80 76 79 86 80 75 77 75 73 74 80 86 85 85 84 86 88 95 100 79 68 60 57 54 59 58 56 54 56 59 62 68 70 77 86 94 96
58 61 63 61 65 67 75 80 81 80 81 85 77 78 78 75 79 81 88 90 87 84 83 89 93 95 81 68 60 55 50 48 48 46 49 48 50 50 49 56 61 65 72 81 89
57 63 62 66 69 72 82 78 80 85 83 82 78 78 77 76 80 82 88 88 85 88 88 90 96 92 73 61 56 52 42 41 40 42 37 38 41 44 46 50 57 60 65 69 76
62 64 66 68 73 76 82 79 88 84 80 80 79 76 75 77 81 87 88 88 89 91 87 89 95 80 67 58 51 46 43 40 38 36 37 31 34 40 39 42 47 50 55 63 69
69 65 67 72 76 80 81 84 92 83 82 81 79 78 78 81 86 92 88 91 93 93 89 92 90 75 64 53 47 41 39 39 36 32 31 28 31 32 33 35 36 38 40 45 54
69 68 76 75 80 84 84 87 92 82 81 81 80 80 78 80 88 93 92 94 94 93 90 89 84 74 62 49 45 38 37 35 30 27 24 25 26 24 25 26 29 29 32 38 42
72 74 78 79 83 86 86 89 89 82 83 80 77 81 82 83 91 94 90 92 93 86 88 86 80 72 57 52 38 37 34 29 25 21 21 20 22 20 19 21 23 26 30 35 36
77 82 81 80 84 88 87 88 85 82 82 80 81 82 85 85 92 93 94 97 98 91 87 83 77 67 55 46 37 36 28 24 20 20 19 17 17 16 16 18 21 25 27 27 28
83 84 85 87 85 86 88 89 82 82 82 79 82 81 85 85 93 95 96 96 100 89 88 83 75 62 50 43 38 32 24 20 19 16 16 14 14 16 15 19 22 27 30 31 35
79 81 83 88 85 90 87 87 84 83 79 79 81 82 87 90 92 95 99 100 97 87 86 83 74 62 52 42 37 31 22 19 17 15 13 11 11 12 13 20 24 29 34 37 42
82 87 89 92 87 90 83 84 82 82 81 78 81 82 87 91 94 97 100 100 89 85 84 80 71 60 50 41 37 29 20 18 15 14 11 10 8 11 16 19 26 34 39 45 49
94 94 94 92 86 85 83 84 81 79 80 79 80 83 87 91 95 97 99 97 85 84 85 80 70 57 47 38 35 30 20 17 14 12 9 9 10 14 17 20 26 33 44 49 53
91 88 89 84 81 84 84 85 83 78 79 80 82 83 89 91 93 97 99 92 85 84 86 77 66 54 46 40 35 30 21 17 13 10 8 9 11 17 22 27 32 37 51 55 61
91 84 80 78 82 83 84 84 84 82 80 81 83 83 90 93 92 95 98 93 86 82 83 79 67 52 44 35 32 29 20 16 13 8 9 9 14 18 25 29 34 42 57 67 68
80 81 82 80 84 83 82 80 83 82 78 81 84 86 88 93 93 95 96 92 86 81 82 77 68 52 43 37 30 29 21 16 12 9 7 10 16 17 25 30 41 48 61 71 78
88 86 83 83 83 82 78 85 83 83 79 85 84 88 90 90 91 96 94 88 82 81 82 76 65 51 42 37 30 27 21 15 12 9 7 9 15 19 22 29 38 49 56 72 80
88 88 86 83 82 78 80 83 85 84 82 87 87 88 88 87 90 92 89 89 78 78 80 75 65 51 40 37 30 27 21 15 11 10 8 9 15 21 22 27 35 46 57 70 79
Wind_Direction
345 342 339 335 332 328 327 327 326 324 324 325 322 320 319 315 313 313 311 306 305 303 301 298 293 289 289 285 285 287 286 283 276 274 270 262 260 249 253 251 245 239 237 237 234
343 344 340 337 333 327 326 326 325 325 324 326 325 325 324 320 316 312 310 308 305 303 302 299 292 287 285 285 286 285 283 279 280 277 274 268 256 253 247 247 250 245 240 235 235
337 335 338 337 333 330 327 326 325 326 326 325 324 324 321 318 314 308 307 305 303 301 301 299 294 289 285 283 283 281 281 279 278 276 272 268 263 250 249 246 247 247 242 237 234
334 332 334 336 333 329 328 328 329 327 325 326 323 320 319 319 315 310 308 306 303 302 298 296 291 286 283 281 279 278 277 278 277 275 270 267 265 257 247 248 249 246 240 238 234
333 333 333 335 330 331 332 331 331 328 326 324 324 323 324 318 316 317 312 310 309 308 303 297 294 291 289 286 286 281 281 279 275 274 270 266 263 260 257 252 245 245 241 237 235
331 332 332 331 328 331 331 334 330 329 326 325 325 324 324 320 320 321 320 316 315 314 307 304 300 297 295 295 292 286 285 282 280 277 272 268 266 263 260 254 248 245 242 239 234
328 330 329 329 331 330 332 332 331 330 326 325 326 326 322 323 325 323 320 323 322 322 319 311 307 301 295 290 287 286 287 287 286 283 281 273 270 266 258 252 248 244 241 240 235
325 328 326 328 327 328 329 332 331 330 327 327 329 327 326 327 326 322 321 324 326 324 316 312 309 303 298 294 292 292 287 283 282 280 278 271 272 266 255 249 245 241 238 236 235
323 325 323 327 327 325 328 331 329 331 329 330 330 329 329 329 327 325 325 331 329 325 318 310 306 301 299 299 299 295 289 287 276 278 273 269 264 258 252 248 244 241 237 235 231
319 322 323 325 325 327 327 329 330 330 330 329 330 330 331 331 328 327 329 330 329 325 316 313 307 304 305 308 304 296 295 288 282 276 272 265 259 255 255 250 244 240 239 236 231
320 323 322 323 326 325 327 329 331 327 326 328 328 329 329 330 329 330 328 329 328 324 319 316 314 312 314 314 307 303 295 290 284 281 277 272 263 258 255 253 248 243 239 236 234
320 322 323 320 322 324 327 329 328 327 327 331 327 326 328 331 332 330 329 329 328 326 322 319 319 320 321 317 311 305 303 294 286 279 275 273 268 264 258 251 247 243 240 236 234
320 322 319 320 323 323 326 325 328 328 327 329 327 328 329 333 333 328 330 330 327 326 325 322 323 324 322 321 315 310 304 296 289 287 279 275 272 267 260 256 250 244 240 235 231
319 318 318 319 320 323 324 326 326 328 326 329 328 330 330 330 331 332 331 330 329 330 327 327 327 328 325 325 318 314 309 302 299 294 290 285 273 265 260 252 248 244 239 237 234
320 316 318 318 319 321 324 325 329 328 327 328 329 331 331 332 332 332 333 331 332 331 329 329 332 330 328 327 320 314 309 306 302 298 292 281 270 269 263 258 252 246 242 234 228
318 314 316 317 318 322 324 325 329 326 327 326 329 331 331 332 333 334 333 336 335 333 330 333 334 333 331 330 322 318 312 308 305 298 288 282 278 272 262 258 248 239 230 227 223
314 314 314 316 319 321 324 325 326 321 327 326 329 332 331 332 332 334 334 335 335 332 331 336 337 334 333 331 325 323 320 314 308 297 290 287 278 268 258 251 239 224 218 215 207
311 313 313 314 317 320 323 324 323 319 326 327 328 333 331 332 333 334 334 336 336 332 334 337 338 336 335 333 328 327 321 319 312 306 301 291 280 267 253 234 225 211 205 203 207
308 310 312 314 317 318 320 322 317 319 325 326 327 329 332 329 331 333 334 334 336 332 338 340 340 337 335 336 333 332 328 326 315 313 299 285 269 259 234 217 210 198 190 186 181
305 307 310 314 315 318 318 319 316 321 325 326 326 327 327 329 331 334 335 333 334 334 340 341 342 338 337 337 336 334 334 332 323 316 299 282 264 252 222 206 202 189 178 172 177
304 306 310 313 314 314 313 317 318 320 324 323 325 327 329 329 332 333 334 334 334 335 341 341 342 339 337 339 338 336 338 337 328 318 303 282 246 235 211 200 202 186 173 165 173
303 309 310 311 309 311 310 316 319 321 322 321 324 326 327 327 331 333 333 333 334 339 343 342 342 338 337 338 339 338 337 340 332 318 292 262 235 201 207 200 195 193 173 168 175
305 304 306 305 307 309 308 313 317 319 320 320 322 322 324 328 331 332 332 332 335 339 343 342 343 338 337 338 341 341 335 340 331 322 280 242 231 194 198 197 197 194 176 170 170
302 302 304 304 307 309 310 311 313 315 316 316 321 321 324 328 328 329 331 331 332 339 342 342 343 338 336 337 339 339 335 340 331 323 268 227 232 204 196 194 200 198 184 171 172
295 296 303 301 306 308 307 308 312 311 314 315 321 319 321 326 327 327 330 330 331 337 341 342 341 337 335 336 340 341 335 338 329 315 257 229 221 209 205 197 199 201 189 182 177
296 299 299 301 305 304 303 309 308 311 314 316 317 320 320 323 325 325 327 329 331 336 339 340 339 337 333 332 336 341 333 333 322 308 256 221 216 221 206 199 202 201 199 191 187
296 298 299 301 299 300 300 306 305 307 308 313 313 315 319 322 323 324 325 327 330 335 337 340 338 335 331 331 331 338 335 327 318 304 262 232 203 216 216 206 203 207 207 201 198
Height
10751 10749 10745 10741 10738 10733 10729 10725 10720 10715 10710 10704 10699 10694 10689 10683 10675 10671 10663 10658 10652 10647 10642 10637 10633 10629 10625 10622 10615 10612 10612 10611 10607 10611 10614 10611 10615 10618 10617 10618 10618 10624 10633 10645 10653
10748 10745 10741 10737 10733 10728 10723 10719 10714 10708 10703 10697 10691 10686 10680 10674 10666 10657 10650 10644 10638 10632 10627 10622 10616 10611 10608 10602 10599 10593 10592 10587 10589 10590 10590 10589 10597 10598 10599 10600 10600 10607 10614 10626 10634
10744 10741 10737 10732 10727 10722 10717 10711 10706 10701 10694 10689 10683 10677 10671 10664 10655 10646 10638 10631 10624 10617 10610 10604 10598 10593 10589 10584 10581 10574 10570 10565 10564 10567 10567 10566 10570 10579 10580 10582 10580 10582 10589 10604 10617
10739 10735 10731 10726 10720 10715 10710 10704 10698 10692 10686 10680 10674 10667 10658 10652 10644 10634 10625 10618 10610 10603 10595 10587 10581 10575 10570 10564 10561 10554 10549 10546 10543 10540 10542 10543 10546 10551 10557 10562 10559 10562 10565 10574 10589
10735 10729 10724 10719 10713 10708 10703 10697 10691 10684 10677 10671 10663 10655 10647 10637 10629 10619 10609 10602 10594 10586 10578 10569 10563 10557 10550 10545 10540 10536 10530 10523 10520 10516 10514 10517 10522 10522 10530 10532 10529 10537 10545 10554 10566
10729 10724 10718 10712 10707 10702 10696 10690 10683 10676 10668 10659 10651 10642 10633 10624 10616 10606 10594 10586 10578 10569 10561 10553 10546 10539 10532 10524 10518 10510 10506 10499 10494 10491 10489 10492 10497 10497 10497 10497 10508 10513 10521 10528 10539
10723 10717 10711 10705 10699 10694 10689 10682 10675 10667 10659 10650 10640 10630 10620 10610 10600 10592 10583 10570 10559 10549 10541 10534 10527 10520 10513 10504 10494 10484 10478 10470 10462 10456 10456 10460 10475 10466 10463 10468 10479 10484 10493 10500 10510
10715 10709 10703 10698 10692 10686 10680 10674 10665 10657 10649 10639 10628 10617 10606 10597 10586 10575 10567 10559 10546 10537 10527 10517 10508 10500 10489 10479 10466 10459 10450 10443 10429 10424 10422 10427 10448 10429 10428 10433 10447 10456 10464 10469 10481
10708 10702 10695 10689 10683 10678 10672 10664 10655 10647 10637 10626 10616 10605 10596 10586 10575 10565 10553 10541 10531 10520 10509 10498 10489 10477 10463 10450 10437 10420 10413 10404 10398 10389 10396 10394 10411 10392 10394 10402 10415 10420 10429 10437 10451
10700 10693 10687 10680 10675 10669 10662 10654 10644 10635 10625 10613 10603 10594 10582 10573 10562 10550 10540 10528 10516 10504 10493 10483 10469 10452 10436 10417 10403 10390 10379 10371 10366 10365 10364 10367 10375 10367 10361 10371 10381 10387 10395 10407 10420
10691 10684 10677 10671 10665 10659 10652 10644 10634 10620 10612 10603 10591 10582 10572 10561 10548 10538 10525 10512 10498 10486 10471 10456 10442 10422 10406 10387 10373 10363 10358 10351 10341 10338 10340 10343 10343 10341 10343 10345 10353 10359 10367 10378 10391
10682 10675 10668 10662 10656 10650 10642 10634 10625 10616 10604 10593 10580 10570 10559 10548 10533 10518 10506 10493 10481 10467 10453 10436 10420 10400 10379 10365 10352 10342 10339 10330 10325 10323 10321 10321 10319 10320 10323 10323 10329 10336 10343 10354 10369
10673 10666 10658 10651 10645 10639 10631 10622 10613 10603 10590 10580 10569 10559 10547 10536 10523 10513 10498 10482 10468 10453 10436 10416 10395 10376 10361 10348 10335 10324 10322 10316 10312 10305 10306 10305 10303 10303 10305 10308 10309 10315 10323 10332 10342
10663 10656 10649 10642 10635 10627 10619 10611 10603 10592 10580 10569 10558 10548 10537 10527 10516 10501 10485 10468 10452 10438 10420 10403 10382 10361 10345 10333 10322 10313 10305 10300 10297 10293 10289 10293 10289 10285 10288 10290 10292 10298 10305 10313 10324
10654 10646 10639 10632 10626 10617 10610 10601 10591 10580 10568 10558 10547 10536 10524 10511 10496 10483 10470 10451 10436 10421 10405 10384 10365 10346 10333 10324 10311 10303 10295 10288 10285 10282 10279 10278 10276 10277 10278 10280 10281 10286 10292 10298 10306
10642 10636 10630 10622 10615 10608 10599 10589 10578 10568 10559 10546 10535 10524 10513 10501 10488 10471 10453 10439 10422 10405 10389 10373 10351 10334 10321 10313 10300 10294 10286 10280 10276 10273 10271 10268 10268 10269 10268 10270 10271 10274 10278 10283 10292
10630 10626 10618 10611 10605 10596 10588 10578 10567 10556 10547 10535 10525 10514 10503 10490 10475 10461 10448 10433 10419 10405 10385 10363 10341 10326 10313 10300 10296 10285 10277 10271 10269 10266 10264 10262 10259 10259 10261 10259 10263 10264 10268 10273 10282
10618 10614 10607 10599 10592 10584 10575 10566 10556 10546 10535 10523 10512 10502 10489 10477 10465 10449 10434 10418 10401 10387 10370 10354 10332 10318 10304 10297 10289 10280 10272 10267 10264 10260 10258 10256 10253 10253 10255 10255 10258 10261 10266 10274 10283
10605 10601 10594 10587 10579 10571 10562 10554 10544 10537 10525 10513 10503 10490 10482 10470 10455 10440 10425 10410 10394 10378 10359 10343 10325 10311 10300 10291 10283 10274 10268 10264 10259 10257 10253 10252 10250 10250 10251 10252 10255 10259 10264 10272 10278
10592 10588 10581 10574 10566 10559 10550 10542 10533 10525 10513 10502 10492 10481 10468 10456 10443 10428 10414 10400 10384 10368 10352 10334 10318 10303 10293 10286 10279 10270 10264 10260 10256 10253 10250 10250 10249 10249 10252 10253 10255 10260 10264 10272 10277
10579 10573 10567 10561 10553 10546 10538 10529 10521 10512 10502 10492 10480 10470 10459 10447 10434 10418 10404 10390 10375 10359 10345 10329 10313 10299 10289 10282 10275 10267 10261 10257 10255 10251 10248 10247 10250 10249 10250 10253 10257 10260 10265 10274 10278
10567 10562 10554 10545 10538 10531 10523 10516 10508 10499 10491 10480 10470 10459 10449 10438 10425 10410 10394 10381 10368 10352 10337 10323 10308 10294 10286 10279 10272 10264 10258 10254 10252 10250 10248 10246 10249 10250 10251 10253 10258 10262 10267 10276 10282
10551 10545 10541 10533 10525 10516 10509 10502 10495 10487 10478 10468 10459 10449 10439 10428 10416 10403 10389 10371 10360 10345 10331 10319 10307 10292 10281 10274 10268 10261 10256 10252 10250 10248 10246 10245 10247 10251 10252 10256 10258 10263 10268 10276 10284
10534 10530 10523 10518 10510 10504 10495 10488 10481 10474 10466 10457 10449 10438 10428 10417 10404 10394 10382 10366 10355 10340 10327 10312 10299 10288 10279 10274 10267 10259 10253 10250 10248 10247 10244 10244 10244 10249 10251 10255 10259 10264 10268 10276 10283
10516 10514 10510 10503 10494 10489 10483 10476 10470 10463 10453 10445 10437 10428 10418 10408 10395 10384 10372 10358 10346 10334 10321 10308 10296 10284 10275 10269 10264 10257 10251 10248 10245 10245 10244 10242 10243 10246 10252 10256 10261 10265 10272 10274 10282
10501 10497 10495 10489 10481 10475 10468 10462 10455 10449 10441 10432 10425 10416 10407 10398 10387 10376 10364 10352 10338 10327 10316 10304 10292 10281 10271 10265 10261 10255 10249 10246 10243 10243 10243 10242 10241 10242 10249 10255 10258 10264 10271 10275 10280
10480 10481 10479 10476 10468 10460 10453 10447 10439 10433 10426 10420 10413 10404 10396 10388 10377 10367 10356 10344 10331 10321 10310 10299 10288 10278 10270 10262 10258 10254 10248 10244 10242 10240 10241 10241 10242 10241 10244 10250 10256 10262 10268 10276 10279